Year,Month,Day,Hour,Minute,Value (Times are PST for temperature in C)
2015,06,30,00,00,22.20
2015,06,30,00,01,22.20
2015,06,30,00,02,22.10
2015,06,30,00,03,22.10
2015,06,30,00,04,22.00
2015,06,30,00,05,22.00
2015,06,30,00,06,22.00
2015,06,30,00,07,21.90
2015,06,30,00,08,21.90
2015,06,30,00,09,21.80
2015,06,30,00,10,21.80
2015,06,30,00,11,21.80
2015,06,30,00,12,21.80
2015,06,30,00,13,21.80
2015,06,30,00,14,21.80
2015,06,30,00,15,21.70
2015,06,30,00,16,21.70
2015,06,30,00,17,21.70
2015,06,30,00,18,21.70
2015,06,30,00,19,21.70
2015,06,30,00,20,21.60
2015,06,30,00,21,21.60
2015,06,30,00,22,21.60
2015,06,30,00,23,21.50
2015,06,30,00,24,21.50
2015,06,30,00,25,21.40
2015,06,30,00,26,21.40
2015,06,30,00,27,21.40
2015,06,30,00,28,21.40
2015,06,30,00,29,21.30
2015,06,30,00,30,21.30
2015,06,30,00,31,21.30
2015,06,30,00,32,21.20
2015,06,30,00,33,21.20
2015,06,30,00,34,21.20
2015,06,30,00,35,21.20
2015,06,30,00,36,21.10
2015,06,30,00,37,21.10
2015,06,30,00,38,21.10
2015,06,30,00,39,21.00
2015,06,30,00,40,21.00
2015,06,30,00,41,20.90
2015,06,30,00,42,20.90
2015,06,30,00,43,20.90
2015,06,30,00,44,20.90
2015,06,30,00,45,20.80
2015,06,30,00,46,20.80
2015,06,30,00,47,20.80
2015,06,30,00,48,20.80
2015,06,30,00,49,20.80
2015,06,30,00,50,20.80
2015,06,30,00,51,20.80
2015,06,30,00,52,20.70
2015,06,30,00,53,20.70
2015,06,30,00,54,20.70
2015,06,30,00,55,20.70
2015,06,30,00,56,20.70
2015,06,30,00,57,20.70
2015,06,30,00,58,20.70
2015,06,30,00,59,20.70
2015,06,30,01,00,20.70
2015,06,30,01,01,20.70
2015,06,30,01,02,20.70
2015,06,30,01,03,20.70
2015,06,30,01,04,20.70
2015,06,30,01,05,20.70
2015,06,30,01,06,20.70
2015,06,30,01,07,20.70
2015,06,30,01,08,20.60
2015,06,30,01,09,20.60
2015,06,30,01,10,20.60
2015,06,30,01,11,20.60
2015,06,30,01,12,20.50
2015,06,30,01,13,20.50
2015,06,30,01,14,20.50
2015,06,30,01,15,20.40
2015,06,30,01,16,20.40
2015,06,30,01,17,20.40
2015,06,30,01,18,20.40
2015,06,30,01,19,20.40
2015,06,30,01,20,20.30
2015,06,30,01,21,20.30
2015,06,30,01,22,20.30
2015,06,30,01,23,20.30
2015,06,30,01,24,20.20
2015,06,30,01,25,20.20
2015,06,30,01,26,20.20
2015,06,30,01,27,20.20
2015,06,30,01,28,20.10
2015,06,30,01,29,20.10
2015,06,30,01,30,20.10
2015,06,30,01,31,20.10
2015,06,30,01,32,20.00
2015,06,30,01,33,20.00
2015,06,30,01,34,19.90
2015,06,30,01,35,19.90
2015,06,30,01,36,19.90
2015,06,30,01,37,19.80
2015,06,30,01,38,19.80
2015,06,30,01,39,19.80
2015,06,30,01,40,19.80
2015,06,30,01,41,19.70
2015,06,30,01,42,19.70
2015,06,30,01,43,19.70
2015,06,30,01,44,19.70
2015,06,30,01,45,19.70
2015,06,30,01,46,19.60
2015,06,30,01,47,19.60
2015,06,30,01,48,19.60
2015,06,30,01,49,19.60
2015,06,30,01,50,19.60
2015,06,30,01,51,19.60
2015,06,30,01,52,19.50
2015,06,30,01,53,19.50
2015,06,30,01,54,19.50
2015,06,30,01,55,19.50
2015,06,30,01,56,19.50
2015,06,30,01,57,19.40
2015,06,30,01,58,19.40
2015,06,30,01,59,19.40
2015,06,30,02,00,19.40
2015,06,30,02,01,19.40
2015,06,30,02,02,19.40
2015,06,30,02,03,19.40
2015,06,30,02,04,19.40
2015,06,30,02,05,19.40
2015,06,30,02,06,19.40
2015,06,30,02,07,19.40
2015,06,30,02,08,19.30
2015,06,30,02,09,19.30
2015,06,30,02,10,19.30
2015,06,30,02,11,19.30
2015,06,30,02,12,19.30
2015,06,30,02,13,19.30
2015,06,30,02,14,19.30
2015,06,30,02,15,19.20
2015,06,30,02,16,19.20
2015,06,30,02,17,19.20
2015,06,30,02,18,19.20
2015,06,30,02,19,19.10
2015,06,30,02,20,19.10
2015,06,30,02,21,19.10
2015,06,30,02,22,19.10
2015,06,30,02,23,19.00
2015,06,30,02,24,19.00
2015,06,30,02,25,19.00
2015,06,30,02,26,18.90
2015,06,30,02,27,18.90
2015,06,30,02,28,18.90
2015,06,30,02,29,18.90
2015,06,30,02,30,18.80
2015,06,30,02,31,18.80
2015,06,30,02,32,18.80
2015,06,30,02,33,18.70
2015,06,30,02,34,18.70
2015,06,30,02,35,18.70
2015,06,30,02,36,18.70
2015,06,30,02,37,18.60
2015,06,30,02,38,18.60
2015,06,30,02,39,18.60
2015,06,30,02,40,18.50
2015,06,30,02,41,18.50
2015,06,30,02,42,18.50
2015,06,30,02,43,18.40
2015,06,30,02,44,18.40
2015,06,30,02,45,18.40
2015,06,30,02,46,18.40
2015,06,30,02,47,18.30
2015,06,30,02,48,18.30
2015,06,30,02,49,18.30
2015,06,30,02,50,18.30
2015,06,30,02,51,18.20
2015,06,30,02,52,18.20
2015,06,30,02,53,18.20
2015,06,30,02,54,18.20
2015,06,30,02,55,18.10
2015,06,30,02,56,18.10
2015,06,30,02,57,18.10
2015,06,30,02,58,18.10
2015,06,30,02,59,18.10
2015,06,30,03,00,18.00
2015,06,30,03,01,18.00
2015,06,30,03,02,18.00
2015,06,30,03,06,17.90
2015,06,30,03,07,17.80
2015,06,30,03,08,17.80
2015,06,30,03,09,17.80
2015,06,30,03,10,17.80
2015,06,30,03,11,17.80
2015,06,30,03,12,17.80
2015,06,30,03,13,17.70
2015,06,30,03,14,17.70
2015,06,30,03,15,17.70
2015,06,30,03,16,17.70
2015,06,30,03,17,17.70
2015,06,30,03,18,17.70
2015,06,30,03,19,17.60
2015,06,30,03,20,17.60
2015,06,30,03,21,17.60
2015,06,30,03,22,17.60
2015,06,30,03,23,17.60
2015,06,30,03,24,17.50
2015,06,30,03,25,17.50
2015,06,30,03,26,17.50
2015,06,30,03,27,17.40
2015,06,30,03,28,17.40
2015,06,30,03,29,17.40
2015,06,30,03,30,17.40
2015,06,30,03,31,17.40
2015,06,30,03,32,17.30
2015,06,30,03,33,17.30
2015,06,30,03,34,17.30
2015,06,30,03,35,17.30
2015,06,30,03,36,17.30
2015,06,30,03,37,17.20
2015,06,30,03,38,17.20
2015,06,30,03,39,17.20
2015,06,30,03,40,17.20
2015,06,30,03,41,17.20
2015,06,30,03,42,17.10
2015,06,30,03,43,17.10
2015,06,30,03,44,17.10
2015,06,30,03,45,17.10
2015,06,30,03,46,17.00
2015,06,30,03,47,17.00
2015,06,30,03,48,17.00
2015,06,30,03,49,16.90
2015,06,30,03,50,16.90
2015,06,30,03,51,16.90
2015,06,30,03,52,16.90
2015,06,30,03,53,16.90
2015,06,30,03,54,16.90
2015,06,30,03,55,16.80
2015,06,30,03,56,16.80
2015,06,30,03,57,16.80
2015,06,30,03,58,16.80
2015,06,30,03,59,16.80
2015,06,30,04,00,16.70
2015,06,30,04,01,16.70
2015,06,30,04,02,16.70
2015,06,30,04,03,16.70
2015,06,30,04,04,16.70
2015,06,30,04,05,16.70
2015,06,30,04,06,16.70
2015,06,30,04,07,16.70
2015,06,30,04,08,16.60
2015,06,30,04,09,16.60
2015,06,30,04,10,16.60
2015,06,30,04,11,16.60
2015,06,30,04,12,16.60
2015,06,30,04,13,16.60
2015,06,30,04,14,16.60
2015,06,30,04,15,16.60
2015,06,30,04,16,16.60
2015,06,30,04,17,16.60
2015,06,30,04,18,16.60
2015,06,30,04,19,16.50
2015,06,30,04,20,16.50
2015,06,30,04,21,16.50
2015,06,30,04,22,16.50
2015,06,30,04,23,16.50
2015,06,30,04,24,16.40
2015,06,30,04,25,16.40
2015,06,30,04,26,16.40
2015,06,30,04,27,16.40
2015,06,30,04,28,16.40
2015,06,30,04,29,16.40
2015,06,30,04,30,16.40
2015,06,30,04,31,16.30
2015,06,30,04,32,16.30
2015,06,30,04,33,16.30
2015,06,30,04,34,16.30
2015,06,30,04,35,16.30
2015,06,30,04,36,16.30
2015,06,30,04,37,16.30
2015,06,30,04,38,16.20
2015,06,30,04,39,16.20
2015,06,30,04,40,16.20
2015,06,30,04,41,16.20
2015,06,30,04,42,16.20
2015,06,30,04,43,16.20
2015,06,30,04,44,16.10
2015,06,30,04,45,16.10
2015,06,30,04,46,16.10
2015,06,30,04,47,16.10
2015,06,30,04,48,16.10
2015,06,30,04,49,16.10
2015,06,30,04,50,16.10
2015,06,30,04,51,16.10
2015,06,30,04,52,16.10
2015,06,30,04,53,16.10
2015,06,30,04,54,16.10
2015,06,30,04,55,16.10
2015,06,30,04,56,16.10
2015,06,30,04,57,16.00
2015,06,30,04,58,16.00
2015,06,30,04,59,16.00
2015,06,30,05,00,16.00
2015,06,30,05,01,16.00
2015,06,30,05,02,16.00
2015,06,30,05,03,16.00
2015,06,30,05,04,15.90
2015,06,30,05,05,15.90
2015,06,30,05,06,15.90
2015,06,30,05,07,15.90
2015,06,30,05,08,15.90
2015,06,30,05,09,15.90
2015,06,30,05,10,15.90
2015,06,30,05,11,15.90
2015,06,30,05,12,15.90
2015,06,30,05,13,15.90
2015,06,30,05,14,15.90
2015,06,30,05,15,15.80
2015,06,30,05,16,15.80
2015,06,30,05,17,15.80
2015,06,30,05,18,15.80
2015,06,30,05,19,15.80
2015,06,30,05,20,15.80
2015,06,30,05,21,15.80
2015,06,30,05,22,15.80
2015,06,30,05,23,15.70
2015,06,30,05,24,15.70
2015,06,30,05,25,15.70
2015,06,30,05,26,15.70
2015,06,30,05,27,15.70
2015,06,30,05,28,15.70
2015,06,30,05,29,15.70
2015,06,30,05,30,15.60
2015,06,30,05,31,15.60
2015,06,30,05,32,15.60
2015,06,30,05,33,15.60
2015,06,30,05,34,15.60
2015,06,30,05,35,15.60
2015,06,30,05,36,15.50
2015,06,30,05,37,15.50
2015,06,30,05,38,15.50
2015,06,30,05,39,15.50
2015,06,30,05,40,15.40
2015,06,30,05,41,15.40
2015,06,30,05,42,15.40
2015,06,30,05,43,15.40
2015,06,30,05,44,15.40
2015,06,30,05,45,15.40
2015,06,30,05,46,15.40
2015,06,30,05,47,15.40
2015,06,30,05,48,15.40
2015,06,30,05,49,15.40
2015,06,30,05,50,15.40
2015,06,30,05,51,15.40
2015,06,30,05,52,15.40
2015,06,30,05,53,15.40
2015,06,30,05,54,15.40
2015,06,30,05,55,15.40
2015,06,30,05,56,15.40
2015,06,30,05,57,15.40
2015,06,30,05,58,15.40
2015,06,30,05,59,15.40
2015,06,30,06,00,15.30
2015,06,30,06,01,15.30
2015,06,30,06,02,15.30
2015,06,30,06,03,15.30
2015,06,30,06,04,15.30
2015,06,30,06,05,15.30
2015,06,30,06,06,15.30
2015,06,30,06,07,15.30
2015,06,30,06,08,15.30
2015,06,30,06,09,15.40
2015,06,30,06,10,15.40
2015,06,30,06,11,15.40
2015,06,30,06,12,15.40
2015,06,30,06,13,15.40
2015,06,30,06,14,15.40
2015,06,30,06,15,15.40
2015,06,30,06,16,15.40
2015,06,30,06,17,15.40
2015,06,30,06,18,15.40
2015,06,30,06,19,15.40
2015,06,30,06,20,15.40
2015,06,30,06,21,15.40
2015,06,30,06,22,15.40
2015,06,30,06,23,15.40
2015,06,30,06,24,15.40
2015,06,30,06,25,15.40
2015,06,30,06,26,15.40
2015,06,30,06,27,15.40
2015,06,30,06,28,15.40
2015,06,30,06,29,15.40
2015,06,30,06,30,15.40
2015,06,30,06,31,15.50
2015,06,30,06,32,15.50
2015,06,30,06,33,15.50
2015,06,30,06,34,15.50
2015,06,30,06,35,15.50
2015,06,30,06,36,15.50
2015,06,30,06,37,15.50
2015,06,30,06,38,15.60
2015,06,30,06,39,15.60
2015,06,30,06,40,15.60
2015,06,30,06,41,15.60
2015,06,30,06,42,15.60
2015,06,30,06,43,15.60
2015,06,30,06,44,15.60
2015,06,30,06,45,15.60
2015,06,30,06,46,15.60
2015,06,30,06,47,15.70
2015,06,30,06,48,15.70
2015,06,30,06,49,15.70
2015,06,30,06,50,15.70
2015,06,30,06,51,15.70
2015,06,30,06,52,15.70
2015,06,30,06,53,15.70
2015,06,30,06,54,15.70
2015,06,30,06,55,15.70
2015,06,30,06,56,15.80
2015,06,30,06,57,15.80
2015,06,30,06,58,15.80
2015,06,30,06,59,15.80
2015,06,30,07,00,15.80
2015,06,30,07,01,15.80
2015,06,30,07,02,15.80
2015,06,30,07,03,15.90
2015,06,30,07,04,15.90
2015,06,30,07,05,15.90
2015,06,30,07,06,15.90
2015,06,30,07,07,15.90
2015,06,30,07,08,16.00
2015,06,30,07,09,16.00
2015,06,30,07,10,16.00
2015,06,30,07,11,16.10
2015,06,30,07,12,16.10
2015,06,30,07,13,16.10
2015,06,30,07,14,16.10
2015,06,30,07,15,16.10
2015,06,30,07,16,16.20
2015,06,30,07,17,16.20
2015,06,30,07,18,16.20
2015,06,30,07,19,16.30
2015,06,30,07,20,16.30
2015,06,30,07,21,16.30
2015,06,30,07,22,16.40
2015,06,30,07,23,16.40
2015,06,30,07,24,16.50
2015,06,30,07,25,16.50
2015,06,30,07,26,16.60
2015,06,30,07,27,16.60
2015,06,30,07,28,16.70
2015,06,30,07,29,16.70
2015,06,30,07,30,16.80
2015,06,30,07,31,16.80
2015,06,30,07,32,16.80
2015,06,30,07,33,16.90
2015,06,30,07,34,16.90
2015,06,30,07,35,17.00
2015,06,30,07,36,17.00
2015,06,30,07,37,17.10
2015,06,30,07,38,17.10
2015,06,30,07,39,17.20
2015,06,30,07,40,17.20
2015,06,30,07,41,17.20
2015,06,30,07,42,17.30
2015,06,30,07,43,17.30
2015,06,30,07,44,17.40
2015,06,30,07,45,17.40
2015,06,30,07,46,17.50
2015,06,30,07,47,17.60
2015,06,30,07,48,17.60
2015,06,30,07,49,17.60
2015,06,30,07,50,17.70
2015,06,30,07,51,17.70
2015,06,30,07,52,17.80
2015,06,30,07,53,17.80
2015,06,30,07,54,17.90
2015,06,30,07,55,18.00
2015,06,30,07,56,18.00
2015,06,30,07,57,18.10
2015,06,30,07,58,18.20
2015,06,30,07,59,18.20
2015,06,30,08,00,18.20
2015,06,30,08,01,18.30
2015,06,30,08,02,18.40
2015,06,30,08,03,18.50
2015,06,30,08,04,18.50
2015,06,30,08,05,18.60
2015,06,30,08,06,18.70
2015,06,30,08,07,18.70
2015,06,30,08,08,18.80
2015,06,30,08,09,18.80
2015,06,30,08,10,18.90
2015,06,30,08,11,18.90
2015,06,30,08,12,19.00
2015,06,30,08,13,19.10
2015,06,30,08,14,19.20
2015,06,30,08,15,19.30
2015,06,30,08,16,19.40
2015,06,30,08,17,19.50
2015,06,30,08,18,19.60
2015,06,30,08,19,19.70
2015,06,30,08,20,19.80
2015,06,30,08,21,19.90
2015,06,30,08,22,20.00
2015,06,30,08,23,20.20
2015,06,30,08,24,20.30
2015,06,30,08,25,20.40
2015,06,30,08,26,20.60
2015,06,30,08,27,20.70
2015,06,30,08,28,20.80
2015,06,30,08,29,20.90
2015,06,30,08,30,21.00
2015,06,30,08,31,21.10
2015,06,30,08,32,21.20
2015,06,30,08,33,21.30
2015,06,30,08,34,21.50
2015,06,30,08,35,21.60
2015,06,30,08,36,21.70
2015,06,30,08,37,21.80
2015,06,30,08,38,21.90
2015,06,30,08,39,22.00
2015,06,30,08,40,22.00
2015,06,30,08,41,22.10
2015,06,30,08,42,22.10
2015,06,30,08,43,22.20
2015,06,30,08,44,22.30
2015,06,30,08,45,22.30
2015,06,30,08,46,22.40
2015,06,30,08,47,22.50
2015,06,30,08,48,22.60
2015,06,30,08,49,22.70
2015,06,30,08,50,22.80
2015,06,30,08,51,22.80
2015,06,30,08,52,22.90
2015,06,30,08,53,23.00
2015,06,30,08,54,23.10
2015,06,30,08,55,23.20
2015,06,30,08,56,23.30
2015,06,30,08,57,23.30
2015,06,30,08,58,23.30
2015,06,30,08,59,23.40
2015,06,30,09,00,23.50
2015,06,30,09,01,23.50
2015,06,30,09,02,23.60
2015,06,30,09,03,23.60
2015,06,30,09,04,23.60
2015,06,30,09,05,23.60
2015,06,30,09,06,23.50
2015,06,30,09,07,23.60
2015,06,30,09,08,23.60
2015,06,30,09,09,23.60
2015,06,30,09,10,23.60
2015,06,30,09,11,23.60
2015,06,30,09,12,23.60
2015,06,30,09,13,23.60
2015,06,30,09,14,23.60
2015,06,30,09,15,23.70
2015,06,30,09,16,23.70
2015,06,30,09,17,23.70
2015,06,30,09,18,23.80
2015,06,30,09,19,23.80
2015,06,30,09,20,23.80
2015,06,30,09,21,23.80
2015,06,30,09,22,23.70
2015,06,30,09,23,23.70
2015,06,30,09,24,23.70
2015,06,30,09,25,23.70
2015,06,30,09,26,23.70
2015,06,30,09,27,23.70
2015,06,30,09,28,23.70
2015,06,30,09,29,23.70
2015,06,30,09,30,23.70
2015,06,30,09,31,23.70
2015,06,30,09,32,23.70
2015,06,30,09,33,23.70
2015,06,30,09,34,23.70
2015,06,30,09,35,23.70
2015,06,30,09,36,23.70
2015,06,30,09,37,23.70
2015,06,30,09,38,23.70
2015,06,30,09,39,23.70
2015,06,30,09,40,23.70
2015,06,30,09,41,23.70
2015,06,30,09,42,23.70
2015,06,30,09,43,23.70
2015,06,30,09,44,23.80
2015,06,30,09,45,23.80
2015,06,30,09,46,23.80
2015,06,30,09,47,23.80
2015,06,30,09,48,23.80
2015,06,30,09,49,23.80
2015,06,30,09,50,23.80
2015,06,30,09,51,23.80
2015,06,30,09,52,23.90
2015,06,30,09,53,23.90
2015,06,30,09,54,23.90
2015,06,30,09,55,24.00
2015,06,30,09,56,24.00
2015,06,30,09,57,24.00
2015,06,30,09,58,24.10
2015,06,30,09,59,24.10
2015,06,30,10,00,24.20
2015,06,30,10,01,24.20
2015,06,30,10,02,24.20
2015,06,30,10,03,24.20
2015,06,30,10,04,24.10
2015,06,30,10,05,24.10
2015,06,30,10,06,24.10
2015,06,30,10,07,24.10
2015,06,30,10,08,24.10
2015,06,30,10,09,24.00
2015,06,30,10,10,24.00
2015,06,30,10,11,24.00
2015,06,30,10,12,24.00
2015,06,30,10,13,24.00
2015,06,30,10,14,24.00
2015,06,30,10,15,24.00
2015,06,30,10,16,24.10
2015,06,30,10,17,24.10
2015,06,30,10,18,24.10
2015,06,30,10,19,24.10
2015,06,30,10,20,24.10
2015,06,30,10,21,24.10
2015,06,30,10,22,24.20
2015,06,30,10,23,24.20
2015,06,30,10,24,24.30
2015,06,30,10,25,24.30
2015,06,30,10,26,24.30
2015,06,30,10,27,24.40
2015,06,30,10,28,24.40
2015,06,30,10,29,24.40
2015,06,30,10,30,24.40
2015,06,30,10,31,24.40
2015,06,30,10,32,24.40
2015,06,30,10,33,24.40
2015,06,30,10,34,24.40
2015,06,30,10,35,24.40
2015,06,30,10,36,24.40
2015,06,30,10,37,24.40
2015,06,30,10,38,24.40
2015,06,30,10,39,24.40
2015,06,30,10,40,24.30
2015,06,30,10,41,24.30
2015,06,30,10,42,24.20
2015,06,30,10,43,24.20
2015,06,30,10,44,24.30
2015,06,30,10,45,24.30
2015,06,30,10,46,24.40
2015,06,30,10,47,24.40
2015,06,30,10,48,24.40
2015,06,30,10,49,24.40
2015,06,30,10,50,24.40
2015,06,30,10,51,24.40
2015,06,30,10,52,24.40
2015,06,30,10,53,24.30
2015,06,30,10,54,24.30
2015,06,30,10,55,24.30
2015,06,30,10,56,24.30
2015,06,30,10,57,24.40
2015,06,30,10,58,24.40
2015,06,30,10,59,24.50
2015,06,30,11,00,24.50
2015,06,30,11,01,24.60
2015,06,30,11,02,24.60
2015,06,30,11,03,24.70
2015,06,30,11,04,24.70
2015,06,30,11,05,24.70
2015,06,30,11,06,24.60
2015,06,30,11,07,24.60
2015,06,30,11,08,24.60
2015,06,30,11,09,24.60
2015,06,30,11,10,24.50
2015,06,30,11,11,24.50
2015,06,30,11,12,24.50
2015,06,30,11,13,24.50
2015,06,30,11,14,24.50
2015,06,30,11,15,24.60
2015,06,30,11,16,24.60
2015,06,30,11,17,24.60
2015,06,30,11,18,24.70
2015,06,30,11,19,24.70
2015,06,30,11,20,24.70
2015,06,30,11,21,24.70
2015,06,30,11,22,24.60
2015,06,30,11,23,24.60
2015,06,30,11,24,24.60
2015,06,30,11,25,24.50
2015,06,30,11,26,24.50
2015,06,30,11,27,24.50
2015,06,30,11,28,24.40
2015,06,30,11,29,24.40
2015,06,30,11,30,24.40
2015,06,30,11,31,24.50
2015,06,30,11,32,24.60
2015,06,30,11,33,24.60
2015,06,30,11,34,24.70
2015,06,30,11,35,24.70
2015,06,30,11,36,24.70
2015,06,30,11,37,24.70
2015,06,30,11,38,24.70
2015,06,30,11,39,24.80
2015,06,30,11,40,24.80
2015,06,30,11,41,24.90
2015,06,30,11,42,25.00
2015,06,30,11,43,25.00
2015,06,30,11,44,25.00
2015,06,30,11,45,25.00
2015,06,30,11,46,25.00
2015,06,30,11,47,25.00
2015,06,30,11,48,25.00
2015,06,30,11,49,25.10
2015,06,30,11,50,25.10
2015,06,30,11,51,25.10
2015,06,30,11,52,25.10
2015,06,30,11,53,25.00
2015,06,30,11,54,25.00
2015,06,30,11,55,24.90
2015,06,30,11,56,24.90
2015,06,30,11,57,24.90
2015,06,30,11,58,24.90
2015,06,30,11,59,24.90
2015,06,30,12,00,24.90
2015,06,30,12,01,24.90
2015,06,30,12,02,24.80
2015,06,30,12,03,24.80
2015,06,30,12,04,24.80
2015,06,30,12,05,24.80
2015,06,30,12,06,24.70
2015,06,30,12,07,24.70
2015,06,30,12,08,24.70
2015,06,30,12,09,24.70
2015,06,30,12,10,24.70
2015,06,30,12,11,24.70
2015,06,30,12,12,24.60
2015,06,30,12,13,24.60
2015,06,30,12,14,24.70
2015,06,30,12,15,24.70
2015,06,30,12,16,24.60
2015,06,30,12,17,24.70
2015,06,30,12,18,24.60
2015,06,30,12,19,24.70
2015,06,30,12,20,24.70
2015,06,30,12,21,24.70
2015,06,30,12,22,24.70
2015,06,30,12,23,24.70
2015,06,30,12,24,24.80
2015,06,30,12,25,24.80
2015,06,30,12,26,24.80
2015,06,30,12,27,24.80
2015,06,30,12,28,24.80
2015,06,30,12,29,24.90
2015,06,30,12,30,24.90
2015,06,30,12,31,24.90
2015,06,30,12,32,24.90
2015,06,30,12,33,25.00
2015,06,30,12,34,25.00
2015,06,30,12,35,25.00
2015,06,30,12,36,25.00
2015,06,30,12,37,25.00
2015,06,30,12,38,24.90
2015,06,30,12,39,24.90
2015,06,30,12,40,24.90
2015,06,30,12,41,24.90
2015,06,30,12,42,24.80
2015,06,30,12,43,24.80
2015,06,30,12,44,24.70
2015,06,30,12,45,24.70
2015,06,30,12,46,24.70
2015,06,30,12,47,24.70
2015,06,30,12,48,24.60
2015,06,30,12,49,24.60
2015,06,30,12,50,24.60
2015,06,30,12,51,24.60
2015,06,30,12,52,24.60
2015,06,30,12,53,24.70
2015,06,30,12,54,24.80
2015,06,30,12,55,24.80
2015,06,30,12,56,24.90
2015,06,30,12,57,24.90
2015,06,30,12,58,24.90
2015,06,30,12,59,25.00
2015,06,30,13,00,24.90
2015,06,30,13,01,25.00
2015,06,30,13,02,25.00
2015,06,30,13,03,25.10
2015,06,30,13,04,25.10
2015,06,30,13,05,25.10
2015,06,30,13,06,25.10
2015,06,30,13,07,25.10
2015,06,30,13,08,25.10
2015,06,30,13,09,25.10
2015,06,30,13,10,25.10
2015,06,30,13,11,25.10
2015,06,30,13,12,25.10
2015,06,30,13,13,25.10
2015,06,30,13,14,25.10
2015,06,30,13,15,25.10
2015,06,30,13,16,25.10
2015,06,30,13,17,25.10
2015,06,30,13,18,25.10
2015,06,30,13,19,25.10
2015,06,30,13,20,25.10
2015,06,30,13,21,25.20
2015,06,30,13,22,25.20
2015,06,30,13,23,25.20
2015,06,30,13,24,25.20
2015,06,30,13,25,25.30
2015,06,30,13,26,25.20
2015,06,30,13,27,25.20
2015,06,30,13,28,25.20
2015,06,30,13,29,25.20
2015,06,30,13,30,25.30
2015,06,30,13,31,25.30
2015,06,30,13,32,25.30
2015,06,30,13,33,25.30
2015,06,30,13,34,25.30
2015,06,30,13,35,25.30
2015,06,30,13,36,25.30
2015,06,30,13,37,25.40
2015,06,30,13,38,25.40
2015,06,30,13,39,25.40
2015,06,30,13,40,25.40
2015,06,30,13,41,25.40
2015,06,30,13,42,25.40
2015,06,30,13,43,25.40
2015,06,30,13,44,25.40
2015,06,30,13,45,25.40
2015,06,30,13,46,25.50
2015,06,30,13,47,25.50
2015,06,30,13,48,25.50
2015,06,30,13,49,25.50
2015,06,30,13,50,25.50
2015,06,30,13,51,25.60
2015,06,30,13,52,25.60
2015,06,30,13,53,25.60
2015,06,30,13,54,25.70
2015,06,30,13,55,25.70
2015,06,30,13,56,25.70
2015,06,30,13,57,25.80
2015,06,30,13,58,25.80
2015,06,30,13,59,25.80
2015,06,30,14,00,25.80
2015,06,30,14,01,25.80
2015,06,30,14,02,25.80
2015,06,30,14,03,25.80
2015,06,30,14,04,25.80
2015,06,30,14,05,25.70
2015,06,30,14,06,25.70
2015,06,30,14,07,25.70
2015,06,30,14,08,25.80
2015,06,30,14,09,25.80
2015,06,30,14,10,25.80
2015,06,30,14,11,25.80
2015,06,30,14,12,25.90
2015,06,30,14,13,25.90
2015,06,30,14,14,25.90
2015,06,30,14,15,25.90
2015,06,30,14,16,25.90
2015,06,30,14,17,25.90
2015,06,30,14,18,25.90
2015,06,30,14,19,25.90
2015,06,30,14,20,25.90
2015,06,30,14,21,25.90
2015,06,30,14,22,25.90
2015,06,30,14,23,25.90
2015,06,30,14,24,25.90
2015,06,30,14,25,25.90
2015,06,30,14,26,25.90
2015,06,30,14,27,25.90
2015,06,30,14,28,25.90
2015,06,30,14,29,25.90
2015,06,30,14,30,25.90
2015,06,30,14,31,25.90
2015,06,30,14,32,25.90
2015,06,30,14,33,25.90
2015,06,30,14,34,25.90
2015,06,30,14,35,25.90
2015,06,30,14,36,26.10
2015,06,30,14,37,26.20
2015,06,30,14,38,26.30
2015,06,30,14,39,26.30
2015,06,30,14,40,26.30
2015,06,30,14,41,26.40
2015,06,30,14,42,26.40
2015,06,30,14,43,26.40
2015,06,30,14,44,26.40
2015,06,30,14,45,26.40
2015,06,30,14,46,26.40
2015,06,30,14,47,26.40
2015,06,30,14,48,26.40
2015,06,30,14,49,26.40
2015,06,30,14,50,26.40
2015,06,30,14,51,26.40
2015,06,30,14,52,26.40
2015,06,30,14,53,26.40
2015,06,30,14,54,26.30
2015,06,30,14,55,26.30
2015,06,30,14,56,26.30
2015,06,30,14,57,26.30
2015,06,30,14,58,26.30
2015,06,30,14,59,26.20
2015,06,30,15,00,26.20
2015,06,30,15,01,26.10
2015,06,30,15,02,26.10
2015,06,30,15,03,26.00
2015,06,30,15,04,26.00
2015,06,30,15,05,26.00
2015,06,30,15,06,26.10
2015,06,30,15,07,26.10
2015,06,30,15,08,26.30
2015,06,30,15,09,26.30
2015,06,30,15,10,26.30
2015,06,30,15,11,26.30
2015,06,30,15,12,26.30
2015,06,30,15,13,26.30
2015,06,30,15,14,26.40
2015,06,30,15,15,26.40
2015,06,30,15,16,26.40
2015,06,30,15,17,26.40
2015,06,30,15,18,26.50
2015,06,30,15,19,26.50
2015,06,30,15,20,26.50
2015,06,30,15,21,26.60
2015,06,30,15,22,26.60
2015,06,30,15,23,26.60
2015,06,30,15,24,26.60
2015,06,30,15,25,26.60
2015,06,30,15,26,26.50
2015,06,30,15,27,26.50
2015,06,30,15,28,26.50
2015,06,30,15,29,26.50
2015,06,30,15,30,26.50
2015,06,30,15,31,26.50
2015,06,30,15,32,26.60
2015,06,30,15,33,26.60
2015,06,30,15,34,26.60
2015,06,30,15,35,26.60
2015,06,30,15,36,26.60
2015,06,30,15,37,26.70
2015,06,30,15,38,26.70
2015,06,30,15,39,26.70
2015,06,30,15,40,26.80
2015,06,30,15,41,26.80
2015,06,30,15,42,26.80
2015,06,30,15,43,26.80
2015,06,30,15,44,26.80
2015,06,30,15,45,26.80
2015,06,30,15,46,26.80
2015,06,30,15,47,26.80
2015,06,30,15,48,26.80
2015,06,30,15,49,26.80
2015,06,30,15,50,26.70
2015,06,30,15,51,26.70
2015,06,30,15,52,26.70
2015,06,30,15,53,26.70
2015,06,30,15,54,26.80
2015,06,30,15,55,26.80
2015,06,30,15,56,26.80
2015,06,30,15,57,26.80
2015,06,30,15,58,26.90
2015,06,30,15,59,26.90
2015,06,30,16,00,26.90
2015,06,30,16,01,26.90
2015,06,30,16,02,26.80
2015,06,30,16,03,26.80
2015,06,30,16,04,26.80
2015,06,30,16,05,26.80
2015,06,30,16,06,26.90
2015,06,30,16,07,27.00
2015,06,30,16,08,27.10
2015,06,30,16,09,27.10
2015,06,30,16,10,27.10
2015,06,30,16,11,27.10
2015,06,30,16,12,27.10
2015,06,30,16,13,27.10
2015,06,30,16,14,27.10
2015,06,30,16,15,27.10
2015,06,30,16,16,27.10
2015,06,30,16,17,27.20
2015,06,30,16,18,27.20
2015,06,30,16,19,27.20
2015,06,30,16,20,27.20
2015,06,30,16,21,27.20
2015,06,30,16,22,27.20
2015,06,30,16,23,27.20
2015,06,30,16,24,27.20
2015,06,30,16,25,27.20
2015,06,30,16,26,27.20
2015,06,30,16,27,27.20
2015,06,30,16,28,27.20
2015,06,30,16,29,27.20
2015,06,30,16,30,27.20
2015,06,30,16,31,27.20
2015,06,30,16,32,27.10
2015,06,30,16,33,27.20
2015,06,30,16,34,27.20
2015,06,30,16,35,27.20
2015,06,30,16,36,27.20
2015,06,30,16,37,27.30
2015,06,30,16,38,27.30
2015,06,30,16,39,27.30
2015,06,30,16,40,27.30
2015,06,30,16,41,27.30
2015,06,30,16,42,27.30
2015,06,30,16,43,27.30
2015,06,30,16,44,27.30
2015,06,30,16,45,27.30
2015,06,30,16,46,27.40
2015,06,30,16,47,27.40
2015,06,30,16,48,27.40
2015,06,30,16,49,27.30
2015,06,30,16,50,27.30
2015,06,30,16,51,27.30
2015,06,30,16,52,27.30
2015,06,30,16,53,27.30
2015,06,30,16,54,27.30
2015,06,30,16,55,27.30
2015,06,30,16,56,27.20
2015,06,30,16,57,27.20
2015,06,30,16,58,27.20
2015,06,30,16,59,27.20
2015,06,30,17,00,27.20
2015,06,30,17,01,27.20
2015,06,30,17,02,27.20
2015,06,30,17,03,27.20
2015,06,30,17,04,27.20
2015,06,30,17,05,27.20
2015,06,30,17,06,27.20
2015,06,30,17,07,27.20
2015,06,30,17,08,27.20
2015,06,30,17,09,27.20
2015,06,30,17,10,27.20
2015,06,30,17,11,27.20
2015,06,30,17,12,27.30
2015,06,30,17,13,27.30
2015,06,30,17,14,27.30
2015,06,30,17,15,27.30
2015,06,30,17,16,27.30
2015,06,30,17,17,27.20
2015,06,30,17,18,27.20
2015,06,30,17,19,27.30
2015,06,30,17,20,27.30
2015,06,30,17,21,27.30
2015,06,30,17,22,27.30